Location: Cicognara
(44.9500°N, 10.4667°E)
Time: 15:31:00
(UTC+00:00)

Cosmos 1816 Rocket - Pass Details

Date: 20 June 2021
Orbit: 952 x 998 km, 82.9° (Epoch: 02 August)

Event Time Altitude Azimuth Distance (km) Brightness Sun altitude
Exits shadow 22:47:52 40° 182° (S) 1,375 4.8 -21.2°
Maximum altitude 22:50:15 86° 98° (E) 962 4.4 -21.3°
Drops below altitude 10° 22:56:25 10° 9° (N) 2,690 7.9 -21.4°
Sets 22:58:55 0° 9° (N) 3,641 8.9 -21.4°
